Weather observations for the past three days for
Kivalina, Kivalina Airport
Imperial (Metric)
Date Time (akdt) Wind (mph) Vis. (mi.) Weather Sky Cond. Temperature (ºF) Relative Humidity Wind Chill (°F) Heat Index (°F) Pressure Precipitation (in)
Air Dwpt 6 hour altimeter (in) sea level (mb) 1 hr 3 hr 6 hr
Max. Min.
20 17:53 S 12 10.00 Fair CLR 55 48 77% 30.18 1022.1
20 16:53 S 14 10.00 Fair CLR 55 46.9 74% 30.18 1022.1
20 15:53 S 15 10.00 Fair CLR 55 46.9 55 48 74% 30.19 1022.4
20 14:53 S 17 10.00 Fair CLR 53.1 48 83% 30.19 1022.2
20 13:53 S 17 10.00 Fair CLR 53.1 48 83% 30.18 1022.0
20 12:53 S 20 10.00 Fair CLR 52 45 77% 30.19 1022.3
20 11:53 S 16 9.00 Fair CLR 53.1 46.9 80% 30.19 1022.2
20 10:53 S 16 10.00 A Few Clouds FEW005 50 46.9 89% 45 30.18 1022.0
20 09:53 S 13 10.00 Overcast OVC005 48 45 48 45 89% 43 30.18 1022.1
20 08:53 S 12 10.00 Overcast OVC005 46 44.1 93% 41 30.18 1022.1
20 07:53 S 8 10.00 Overcast OVC005 46 44.1 93% 42 30.18 1022.1
20 06:53 S 8 10.00 Overcast OVC005 45 43 93% 41 30.18 1021.9
20 05:53 S 7 10.00 Overcast OVC007 46 43 89% 43 30.18 1021.9
20 04:53 S 7 10.00 Overcast OVC007 45 43 93% 42 30.17 1021.7
20 03:53 S 8 10.00 Overcast OVC008 45 42.1 46 45 90% 41 30.17 1021.5
20 02:53 SW 9 10.00 Overcast OVC008 45 42.1 90% 41 30.16 1021.2
20 01:53 SW 10 10.00 Overcast OVC006 45 42.1 90% 40 30.15 1021.1
20 00:53 SW 10 10.00 Overcast OVC006 45 42.1 90% 40 30.15 1020.9
19 23:53 SW 14 7.00 Overcast OVC005 46 42.1 86% 40 30.13 1020.3
19 21:53 S 16 9.00 Overcast OVC006 46 43 51.1 46 89% 40 30.1 1019.3
19 20:53 S 14 6.00 Fog/Mist OVC005 46 43 89% 40 30.1 1019.3
19 19:53 SW 15 7.00 Overcast OVC006 46.9 43 86% 41 30.09 1018.9
19 18:53 S 18 10.00 Overcast OVC009 48 44.1 86% 42 30.08 1018.5
19 17:53 S 16 10.00 Overcast OVC011 48.9 44.1 83% 44 30.07 1018.2
19 16:53 S 17 10.00 Overcast FEW013 OVC024 50 45 83% 45 30.06 1017.9
19 15:53 S 18 10.00 Overcast OVC022 50 45 51.1 50 83% 44 30.05 1017.4
19 14:53 S 21 10.00 Overcast and Breezy OVC022 50 45 83% 44 30.03 1017.0
19 13:53 S 21 10.00 Overcast and Breezy FEW011 OVC033 51.1 45 80% 30.02 1016.4
19 12:53 S 25 10.00 Overcast and Breezy OVC013 50 46 86% 43 30 1015.7
19 11:53 S 24 10.00 Overcast and Breezy OVC016 50 46 86% 43 29.98 1015.3
19 10:53 S 23 10.00 Overcast and Breezy OVC014 50 46 86% 44 29.97 1014.8
19 09:53 S 25 G 36 10.00 Overcast and Breezy OVC013 50 46 50 48.9 86% 43 29.94 1014.0
19 08:53 S 25 10.00 Overcast and Breezy OVC014 50 46 86% 43 29.95 1014.0
19 07:53 S 26 10.00 Overcast and Windy OVC012 50 46 86% 43 29.93 1013.4
19 06:53 S 23 G 32 10.00 Overcast and Breezy OVC010 48.9 46 90% 42 29.93 1013.6
19 05:53 S 22 10.00 Overcast and Breezy OVC009 48.9 46 90% 42 29.93 1013.6
19 04:53 S 25 10.00 Overcast and Breezy OVC007 50 46 86% 43 29.92 1013.0
19 03:48 S 21 10.00 Mostly Cloudy and Breezy BKN009 50 45 55 50 83% 44 29.91 1012.8
19 02:53 S 21 10.00 Fair and Breezy CLR 51.1 46 83% 29.9 1012.4
19 01:53 S 20 10.00 Fair CLR 52 46 80% 29.88 1011.8
19 00:53 S 16 10.00 Fair CLR 53.1 46.9 80% 29.88 1011.8
18 22:53 S 16 10.00 Fair CLR 54 48.9 83% 29.86 1011.1
18 21:53 S 13 10.00 Overcast OVC065 54 50 57.9 54 87% 29.86 1011.1
18 20:53 S 14 10.00 Fair CLR 55 50 83% 29.85 1010.8
18 19:53 S 16 10.00 Fair CLR 55.9 51.1 84% 29.85 1010.6
18 18:53 S 16 10.00 Fair CLR 57 51.1 81% 29.84 1010.6
18 17:53 S 14 10.00 Fair CLR 57.9 51.1 78% 29.84 1010.6
18 16:53 SE 15 10.00 Fair CLR 57 50 78% 29.84 1010.5
18 15:53 S 15 10.00 Fair CLR 54 48 55 50 80% 29.85 1010.8
18 13:53 S 16 10.00 Fair CLR 53.1 46 77% 29.83 1010.1
18 12:53 S 18 10.00 Fair CLR 51.1 45 80% 29.82 1009.7
18 11:53 S 15 10.00 A Few Clouds FEW120 51.1 45 80% 29.81 1009.6
18 10:53 S 16 10.00 A Few Clouds FEW120 50 46 86% 45 29.79 1008.9
18 09:53 S 18 10.00 Fair CLR 50 45 52 50 83% 44 29.78 1008.4
18 08:53 S 18 10.00 Fair CLR 51.1 46 83% 29.76 1007.8
18 07:53 S 17 10.00 A Few Clouds FEW120 51.1 46 83% 29.76 1007.7
18 06:53 S 15 10.00 A Few Clouds FEW100 51.1 46.9 86% 29.75 1007.6
18 05:53 S 20 10.00 Overcast OVC095 51.1 46 83% 29.74 1007.2
18 04:53 S 18 10.00 Overcast FEW080 OVC100 51.1 46.9 86% 29.75 1007.3
18 03:53 S 18 10.00 A Few Clouds FEW110 52 48 52 50 86% 29.75 1007.4
18 01:53 S 23 10.00 Overcast and Breezy BKN080 OVC095 52 46.9 83% 29.74 1007.1
18 00:53 S 22 10.00 Overcast and Breezy FEW065 OVC090 51.1 46.9 86% 29.74 1007.2
17 23:53 S 20 10.00 A Few Clouds FEW100 51.1 46.9 86% 29.75 1007.3
17 22:53 S 14 10.00 Overcast OVC075 51.1 46 83% 29.75 1007.5
17 21:53 S 16 10.00 Overcast OVC085 50 45 50 45 83% 45 29.75 1007.4
17 20:53 S 16 10.00 Overcast FEW050 OVC075 48.9 43 80% 44 29.76 1007.6
17 19:53 S 15 10.00 Overcast OVC060 48.9 43 80% 44 29.77 1007.9
17 18:53 S 10 10.00 Light Rain SCT045 SCT050 OVC065 46.9 43 86% 43 29.79 1008.7
Date Time (akdt) Wind (mph) Vis. (mi.) Weather Sky Cond. Air Dwpt Max. Min. Relative Humidity Wind Chill (°F) Heat Index (°F) altimeter (in) sea level (mb) 1 hr 3 hr 6 hr
6 hour
Temperature (ºF) Pressure Precipitation (in)